{"data":{"norad_id":59742,"epoch":"2026-05-25T04:19:08.658048Z","epoch_age_seconds":60231,"freshness":"FRESH","line1":"1 59742U 24090N   26145.17996132  .00001016  00000+0  46454-4 0  9992","line2":"2 59742  43.0020 111.8961 0001079 255.5819 104.4913 15.27580022115110","mean_motion":15.27580022,"eccentricity":0.0001079,"inclination_deg":43.002,"raan_deg":111.8961,"arg_perigee_deg":255.5819,"mean_anomaly_deg":104.4913,"bstar":4.6454e-5,"rev_number":11511,"period_min":94.266747356035,"perigee_km":482.30870819108,"apogee_km":483.78935213639,"semimajor_km":6861.1860301637,"source":"CELESTRAK","updated_at":"2026-05-25T13:38:19.052896Z"}}